Torna al catalogo

CZ-3C DEB

AttivoHEO
NORAD 40171·DEBRIS·🇨🇳 China

Lanciato Oct 31, 2010 da Xichang Satellite Launch Center

Loading…

Prossimi Passaggi (prossime 24 ore)

TLE

In scadenzaSource: Space-Track

Epoca: Sep 3, 2026, 04:42 UTC

1 40171U 10057Z   26246.19589375  .00029197  00000-0  37566-2 0  9990
2 40171  21.8651 188.4079 3917156 235.5707  81.0579  7.51272023218938

Traccia CZ-3C DEB in tempo reale con AllMySat

Download on the App Store